Location: Gebenbach
(49.5378°N, 11.8735°E)
Time: 12:01:47
(UTC+00:00)

Cosmos 1302 Rocket - Pass Details

Date: 29 October 2020
Orbit: 756 x 777 km, 74.0° (Epoch: 24 November)

Event Time Altitude Azimuth Distance (km) Brightness Sun altitude
Rises 16:55:55 0° 195° (SSW) 3,227 7.6 -10.4°
Reaches altitude 10° 16:58:17 10° 194° (SSW) 2,308 6.8 -10.8°
Maximum altitude 17:03:31 73° 110° (ESE) 812 4.0 -11.6°
Drops below altitude 10° 17:08:48 10° 27° (NNE) 2,335 6.2 -12.5°
Sets 17:11:12 0° 25° (NNE) 3,268 7.0 -12.8°
